Voltar ao catálogo

STARLINK-4142

AtivoComunicaçõesVLEO
NORAD 53255·PAYLOAD·🇺🇸 United States

Lançado Jul 24, 2022 de Cape Canaveral Space Force Station

Loading…

Próximas Passagens (próximas 24 horas)

TLE

AtualizadoSource: CelesTrak SupGP

Época: Sep 15, 2026, 02:42 UTC

1 53255C 22086P   26258.11298611 -.00035224  00000+0 -13289-2 0  2580
2 53255  53.1565  59.7379 0001299  90.2732  88.3824 15.26524422    18

Acompanhe STARLINK-4142 em tempo real com AllMySat

Download on the App Store